{"data":{"norad_id":49141,"intl_designator":"2021-082M","name":"STARLINK-3093","alt_names":[],"object_type":"PAYLOAD","status":"ACTIVE","operator":null,"country":"US","launch_date":"2021-09-14","launch_site_code":"AFWTR","launch_vehicle":null,"mission":null,"orbit_class":"UNKNOWN","rcs_meters":null,"size_class":null,"mass_kg":null,"dimensions":null,"purposes":["comms"],"wikipedia_slug":null,"has_3d_model":false,"image_url":null,"decayed_at":null,"tle_current":{"epoch":"2026-09-19T23:33:04.343328Z","epoch_age_seconds":86151,"freshness":"FRESH","line1":"1 49141U 21082M   26262.98130027  .00000078  00000+0  14296-4 0  9990","line2":"2 49141  69.9987 164.5888 0002410 268.7813  91.3070 14.98339606276285","mean_motion":14.98339606,"eccentricity":0.000241,"inclination_deg":69.9987,"raan_deg":164.5888,"arg_perigee_deg":268.7813,"mean_anomaly_deg":91.307,"bstar":1.4296e-5,"rev_number":27628,"period_min":96.106382974435,"perigee_km":570.35119601286,"apogee_km":573.70117466819,"semimajor_km":6950.1631853405,"source":"CELESTRAK","updated_at":"2026-09-20T09:00:39.248256Z"}}}